284  
ASUS41 KOKX 202105  
RWROKX  
 
REGIONAL WEATHER ROUNDUP  
NATIONAL WEATHER SERVICE NEW YORK NY  
500 PM EDT MON AUG 20 2018  
 
NOTE: "FAIR" INDICATES FEW OR NO CLOUDS BELOW 12,000 FEET WITH NO  
SIGNIFICANT WEATHER AND/OR S TO VISIBILITY
.  
 
NYZ071-072-176-178-NJZ106-104-202200-  
NEW YORK CITY METRO AREA  
 
CITY SKY/WX TMP DP RH WIND PRES REMARKS
 
CENTRAL PARK PTSUNNY 73 65 75 MISG 30.14F  
BRONX BOT GARD NOT AVBL  
BRONX LEHMAN C N/A 75 63 64 SE9 N/A  
LAGUARDIA ARPT PTSUNNY 76 63 64 E8 30.11F  
QUEENS COLLEGE N/A 73 64 73 E8 N/A  
KENNEDY INTL PTSUNNY 72 68 87 SE8 30.13F  
BREEZY POINT N/A 70 N/A N/A SE7 N/A  
BROOKLYN COLL N/A 72 64 78 SE7 N/A  
STATEN ISLAND N/A 72 66 83 SE3 N/A  
NEWARK/LIBERTY PTSUNNY 74 65 73 SE6 30.11F  
TETERBORO PTSUNNY 76 64 66 SE10 30.10F  

 
 
NYZ177-179-078>081-202200-  
LONG ISLAND NEW YORK  
 
CITY SKY/WX TMP DP RH WIND PRES REMARKS
 
JONES BEACH N/A 70 N/A N/A E6 N/A  
WANTAGH N/A 70 66 88 SE6 N/A  
HEMPSTEAD N/A 72 66 83 SE2 30.15R  
MATINECOCK PT N/A 73 N/A N/A E9 N/A  
FARMINGDALE PTSUNNY 72 66 81 S8 30.12F  
MACARTHUR/ISP PTSUNNY 74 66 76 E6 30.11F  
STONY BROOK N/A 73 64 73 SE3 N/A  
SHIRLEY PTSUNNY 74 69 85 S5 30.12F  
MT SINAI HARB N/A N/A N/A N/A E5 N/A  
WESTHAMPTON CLOUDY 72 64 76 SE5 30.14S  
EAST HAMPTON CLOUDY 73 64 71 E7 30.12S  
SOUTHOLD N/A 73 66 78 SE2 N/A  
MONTAUK N/A 75 65 70 E9 30.13F  

 
 
NYZ052-065-067-202200-  
HUDSON VALLEY  
 
CITY SKY/WX TMP DP RH WIND PRES REMARKS
 
WHITE PLAINS PTSUNNY 73 64 73 E6 30.12F  
LARCHMONT HARB N/A 72 N/A N/A NE7 N/A  
CROTON ON HUDS N/A 75 N/A N/A S2 N/A  
SOMERS N/A 72 66 83 SE2 N/A  
BREWSTER N/A 73 63 68 S3 N/A  
NEWBURGH PTSUNNY 75 66 73 SE7 30.13F  
MONTGOMERY PTSUNNY 75 64 68 SE7 30.11F  
OTISVILLE N/A 73 63 68 E3 N/A  
WARWICK N/A 73 68 83 NE3 N/A  
SUFFERN N/A 73 64 73 SE1 N/A  
POUGHKEEPSIE CLOUDY 76 63 64 VRB3 30.10F  
ALBANY PTSUNNY 79 59 50 SE7 30.11F  

 
 
NJZ001-105-106-008-010-013-015-019>022-104-202200-  
NEW JERSEY  
 
CITY SKY/WX TMP DP RH WIND PRES REMARKS
 
NEWARK/LIBERTY PTSUNNY 74 65 73 SE6 30.11F  
TETERBORO PTSUNNY 76 64 66 SE10 30.10F  
CALDWELL FAIR 74 64 71 SE8 30.12F  
SOMERVILLE FAIR 75 64 68 VRB3 30.10F  
LINDEN CLOUDY 73 64 71 CALM 30.12S  
PERTH AMBOY N/A 72 N/A N/A E10 N/A  
SUSSEX CLOUDY 75 65 70 SE3 30.11F  
ANDOVER N/A 73 65 75 CALM 30.12F  
TRENTON CLOUDY 76 64 66 E5 30.10F  
MILLVILLE CLOUDY 76 66 71 E8 30.10R  
ATLANTIC CITY PTSUNNY 76 67 73 E13 30.10F  
WRIGHTSTOWN CLOUDY 74 65 73 E5 30.09  
TOMS RIVER FAIR 75 66 73 E8G16 30.12S  
BELMAR PTSUNNY 73 66 78 E8 30.13S  

 
 
PAZ047>061-062-071-202200-  
EASTERN PENNSYLVANIA  
 
CITY SKY/WX TMP DP RH WIND PRES REMARKS
 
PHILADELPHIA PTSUNNY 77 65 66 E3 30.10F  
ALLENTOWN PTSUNNY 79 61 53 SE10 30.11F  
SCRANTON FAIR 76 61 59 VRB6 30.10F  

 
 
CTZ002-004>006-009-010-012-RIZ004-006-007-MAZ004-011-015-202200-  
SOUTHERN NEW ENGLAND  
 
IN CT  
 
CITY SKY/WX TMP DP RH WIND PRES REMARKS
 
BRADLEY INTL PTSUNNY 77 59 53 E10 30.12F  
HARTFORD FAIR 76 61 59 NE7 30.12F  
DANBURY FAIR 74 64 71 S5 30.13F  
WTRBURY/OXFORD PTSUNNY 74 64 71 E6 30.14F  
NORWALK HARBOR N/A 72 N/A N/A SE3 N/A  
BRIDGEPORT CLOUDY 75 64 68 SE6 30.11F  
MERIDEN FAIR 75 60 59 SE6 30.12F  
NEW HAVEN PTSUNNY 76 65 68 S5 30.12F  
CHESTER CLOUDY 73 64 73 CALM 30.14S  
GROTON CLOUDY 76 61 59 NE10 30.11F  
WILLIMANTIC CLOUDY 78 60 53 E12 30.13F  
 
IN RI  
 
CITY SKY/WX TMP DP RH WIND PRES REMARKS
 
PROVIDENCE FAIR 75 57 53 NE17 30.14S  
BLOCK ISLAND CLOUDY 71 64 78 NE9 30.13S  
WESTERLY CLOUDY 76 62 62 NE9 30.13S  
 
IN MA  
 
CITY SKY/WX TMP DP RH WIND PRES REMARKS
 
BOSTON FAIR 71 62 73 E13 30.17S  
WORCESTER CLOUDY 70 58 65 NE6 30.17F  
WESTFIELD PTSUNNY 76 60 57 E5 30.13F  
PROVINCETOWN CLOUDY 68 64 87 NE12 30.15R  
NANTUCKET CLOUDY 68 65 90 N17 30.11R  

 
 
ANZ330-335-338-340-345-350-353-355-202200-  
COASTAL MARINE OBSERVATIONS  
 
 
STATION/POSITION TIME SKY/WX TEMP WIND PRES VSBY WAVE
 
AIR SEA DIR/SP/G HT/PER  
(UTC) (F) (DEG/KT/KT) (MB) (MI) (FT/S)  
NY HARB ENTRANCE 2050 70 73 70/ 10/ 12 1019.5 3/ 6  
20 S FIRE ISLAND 2050 72 73 60/ 16/ 17 1019.3 4/ 6  
GREAT SOUTH BAY 2030 71 77 120/ 4/ 8 N/A  
23 SSW MONTAUK P 2050 72 73 1019.7 4/ 5  
15 E BARNEGAT LI 2000 75 N/A 4/ 6  
HUDSON CANYON 2050 74 50/ 14/ 17 1018.5 4/ 6  
KINGS POINT 2036 74 75 80/ 3/ 7 1020.7  
EXECUTION ROCKS 2015 75 80/ 8/ 12 N/A  
WESTERN LI SOUND 1950 73 110/ 8/ 10 N/A 1/ 4  
CENTRAL LI SOUND 2015 73 75 100/ 6/ 6 N/A 1/ 4  
ROBBINS REEF 2036 72 180/ 6/ 7 1020.3  

 
 
>>>>>>>>>>>>>>>>>>>>>>>>>>>> KEY <<<<<<<<<<<<<<<<<<<<<<<<<<<  
> <  
> SKY/WX - SKY CONDITION/PRESENT WEATHER <  
> TMP - TEMPERATURE IN FAHRENHEIT <  
> DP - DEW POINT IN FAHRENHEIT <  
> RH - RELATIVE HUMIDITY IN PERCENT <  
> WIND - DIRECTION (FROM) AND SPEED IN MPH <  
> PRES - MEAN SEA LEVEL PRESSURE (INCHES OF HG) <  
> WCI - WIND CHILL INDEX <  
> VSB - VISIBILITY IN MILES <  
> HX - HEAT INDEX <  
> TC - TEMPERATURE IN CELSIUS <  
> VRB - VARIBALE WIND DIRECTION <  
> <  
>>>>>>>>>>>>>>>>>>>>>>>>>>>> KEY <<<<<<<<<<<<<<<<<<<<<<<<<<<  
 
 
CLICK HERE TO GO TO PREVIOUS BULLETINS.

The Nexlab NY Page
The Nexlab NJ Page
The Nexlab CT Page Main Text Page